Time,TemperatureF,DewpointF,PressureIn,WindDirection,WindDirectionDegrees,WindSpeedMPH,WindSpeedGustMPH,Humidity,HourlyPrecipIn,Conditions,Clouds,dailyrainin,SoftwareType,DateUTC
2013-01-13 00:00:00,52.4,41.0,29.86,NNW,336,9.0,22.0,65,0.00,,SKC,0.00,VWS V14.01,2013-01-13 06:00:00,
2013-01-13 00:01:00,52.4,41.0,29.86,NNW,340,9.0,22.0,65,0.00,,SKC,0.00,VWS V14.01,2013-01-13 06:01:00,
2013-01-13 00:06:00,52.3,41.3,29.86,North,355,12.0,14.0,66,0.00,,SKC,0.00,VWS V14.01,2013-01-13 06:06:00,
2013-01-13 00:11:00,52.0,40.6,29.87,North,11,11.0,24.0,65,0.00,,SKC,0.00,VWS V14.01,2013-01-13 06:11:00,
2013-01-13 00:16:00,51.8,40.4,29.87,North,355,8.0,24.0,65,0.00,,SKC,0.00,VWS V14.01,2013-01-13 06:16:00,
2013-01-13 00:21:00,51.5,40.1,29.87,NW,316,17.0,24.0,65,0.00,,SKC,0.00,VWS V14.01,2013-01-13 06:21:00,
2013-01-13 00:26:00,51.3,40.0,29.87,NW,316,11.0,24.0,65,0.00,,SKC,0.00,VWS V14.01,2013-01-13 06:26:00,
2013-01-13 00:30:00,51.0,39.7,29.88,NW,323,5.0,24.0,65,0.00,,SKC,0.00,VWS V14.01,2013-01-13 06:30:00,
2013-01-13 00:31:00,51.1,39.8,29.88,NNW,327,13.0,24.0,65,0.00,,SKC,0.00,VWS V14.01,2013-01-13 06:31:00,
2013-01-13 00:36:00,50.9,39.6,29.88,NNW,342,6.0,18.0,65,0.00,,SKC,0.00,VWS V14.01,2013-01-13 06:36:00,
2013-01-13 00:41:00,50.6,39.3,29.88,North,355,8.0,18.0,65,0.00,,SKC,0.00,VWS V14.01,2013-01-13 06:41:00,
2013-01-13 00:46:00,50.5,39.6,29.89,North,355,6.0,18.0,66,0.00,,SKC,0.00,VWS V14.01,2013-01-13 06:46:00,
2013-01-13 00:51:00,50.3,39.0,29.89,North,5,19.0,19.0,65,0.00,,SKC,0.00,VWS V14.01,2013-01-13 06:51:00,
2013-01-13 00:56:00,49.9,38.2,29.89,NNW,338,11.0,24.0,64,0.00,,SKC,0.00,VWS V14.01,2013-01-13 06:56:00,
2013-01-13 01:00:00,49.6,37.9,29.89,North,360,14.0,24.0,64,0.00,,SKC,0.00,VWS V14.01,2013-01-13 07:00:00,
2013-01-13 01:01:00,49.6,37.9,29.89,NW,325,16.0,24.0,64,0.00,,SKC,0.00,VWS V14.01,2013-01-13 07:01:00,
2013-01-13 01:06:00,49.4,37.8,29.88,NNW,336,6.0,15.0,64,0.00,,SKC,0.00,VWS V14.01,2013-01-13 07:06:00,
2013-01-13 01:11:00,49.2,37.6,29.88,North,355,18.0,19.0,64,0.00,,SKC,0.00,VWS V14.01,2013-01-13 07:11:00,
2013-01-13 01:16:00,49.1,37.5,29.89,NW,314,9.0,19.0,64,0.00,,SKC,0.00,VWS V14.01,2013-01-13 07:16:00,
2013-01-13 01:21:00,49.0,37.4,29.89,North,349,10.0,19.0,64,0.00,,SKC,0.00,VWS V14.01,2013-01-13 07:21:00,
2013-01-13 01:26:00,49.0,37.4,29.89,NNE,13,10.0,20.0,64,0.00,,SKC,0.00,VWS V14.01,2013-01-13 07:26:00,
2013-01-13 01:30:00,48.9,37.3,29.90,North,360,6.0,20.0,64,0.00,,SKC,0.00,VWS V14.01,2013-01-13 07:30:00,
2013-01-13 01:31:00,48.9,37.3,29.90,North,351,3.0,20.0,64,0.00,,SKC,0.00,VWS V14.01,2013-01-13 07:31:00,
2013-01-13 01:36:00,48.9,37.3,29.90,NNE,21,3.0,17.0,64,0.00,,SKC,0.00,VWS V14.01,2013-01-13 07:36:00,
2013-01-13 01:41:00,48.8,36.8,29.90,NNW,336,11.0,17.0,63,0.00,,SKC,0.00,VWS V14.01,2013-01-13 07:41:00,
2013-01-13 01:46:00,48.7,36.7,29.89,NNE,22,11.0,20.0,63,0.00,,SKC,0.00,VWS V14.01,2013-01-13 07:46:00,
2013-01-13 01:51:00,48.6,36.6,29.89,NW,321,13.0,20.0,63,0.00,,SKC,0.00,VWS V14.01,2013-01-13 07:51:00,
2013-01-13 01:56:00,48.4,36.4,29.89,NNE,17,10.0,20.0,63,0.00,,SKC,0.00,VWS V14.01,2013-01-13 07:56:00,
2013-01-13 02:00:00,48.2,36.2,29.90,ENE,57,13.0,20.0,63,0.00,,SKC,0.00,VWS V14.01,2013-01-13 08:00:00,
2013-01-13 02:01:00,48.3,36.3,29.90,NNW,340,7.0,20.0,63,0.00,,SKC,0.00,VWS V14.01,2013-01-13 08:01:00,
2013-01-13 02:06:00,48.1,36.1,29.90,NNW,336,8.0,19.0,63,0.00,,SKC,0.00,VWS V14.01,2013-01-13 08:06:00,
2013-01-13 02:11:00,48.0,36.0,29.91,NNW,345,9.0,21.0,63,0.00,,SKC,0.00,VWS V14.01,2013-01-13 08:11:00,
2013-01-13 02:16:00,47.8,35.8,29.92,NNW,336,7.0,21.0,63,0.00,,SKC,0.00,VWS V14.01,2013-01-13 08:16:00,
2013-01-13 02:21:00,47.8,35.8,29.92,NNW,336,4.0,21.0,63,0.00,,SKC,0.00,VWS V14.01,2013-01-13 08:21:00,
2013-01-13 02:26:00,47.7,35.3,29.91,NNW,340,5.0,22.0,62,0.00,,SKC,0.00,VWS V14.01,2013-01-13 08:26:00,
2013-01-13 02:30:00,47.5,35.2,29.92,NNW,327,9.0,22.0,62,0.00,,SKC,0.00,VWS V14.01,2013-01-13 08:30:00,
2013-01-13 02:31:00,47.5,35.1,29.92,NW,317,7.0,22.0,62,0.00,,SKC,0.00,VWS V14.01,2013-01-13 08:31:00,
2013-01-13 02:36:00,47.4,35.0,29.92,North,355,10.0,17.0,62,0.00,,SKC,0.00,VWS V14.01,2013-01-13 08:36:00,
2013-01-13 02:41:00,47.3,35.0,29.93,NNW,328,12.0,17.0,62,0.00,,SKC,0.00,VWS V14.01,2013-01-13 08:41:00,
2013-01-13 02:46:00,47.2,34.9,29.93,NNW,345,14.0,17.0,62,0.00,,SKC,0.00,VWS V14.01,2013-01-13 08:46:00,
2013-01-13 02:51:00,47.1,35.2,29.92,NNW,331,3.0,17.0,63,0.00,,SKC,0.00,VWS V14.01,2013-01-13 08:51:00,
2013-01-13 02:56:00,47.0,34.7,29.92,NNE,12,8.0,20.0,62,0.00,,SKC,0.00,VWS V14.01,2013-01-13 08:56:00,
2013-01-13 03:00:00,46.9,34.6,29.93,NW,326,15.0,20.0,62,0.00,,SKC,0.00,VWS V14.01,2013-01-13 09:00:00,
2013-01-13 03:01:00,46.9,34.6,29.93,North,355,9.0,20.0,62,0.00,,SKC,0.00,VWS V14.01,2013-01-13 09:01:00,
2013-01-13 03:06:00,46.8,34.5,29.93,NNE,12,9.0,18.0,62,0.00,,SKC,0.00,VWS V14.01,2013-01-13 09:06:00,
2013-01-13 03:11:00,46.7,34.8,29.93,North,9,6.0,18.0,63,0.00,,SKC,0.00,VWS V14.01,2013-01-13 09:11:00,
2013-01-13 03:16:00,46.5,34.2,29.93,North,355,13.0,25.0,62,0.00,,SKC,0.00,VWS V14.01,2013-01-13 09:16:00,
2013-01-13 03:21:00,46.3,34.4,29.94,North,355,9.0,25.0,63,0.00,,SKC,0.00,VWS V14.01,2013-01-13 09:21:00,
2013-01-13 03:26:00,46.1,34.2,29.94,NNW,338,7.0,25.0,63,0.00,,SKC,0.00,VWS V14.01,2013-01-13 09:26:00,
2013-01-13 03:30:00,45.9,34.4,29.95,NNW,344,5.0,25.0,64,0.00,,SKC,0.00,VWS V14.01,2013-01-13 09:30:00,
2013-01-13 03:31:00,46.0,34.5,29.95,NNW,340,16.0,25.0,64,0.00,,SKC,0.00,VWS V14.01,2013-01-13 09:31:00,
2013-01-13 03:36:00,45.9,34.4,29.94,NNW,329,7.0,14.0,64,0.00,,SKC,0.00,VWS V14.01,2013-01-13 09:36:00,
2013-01-13 03:41:00,45.8,34.3,29.94,NNW,337,5.0,18.0,64,0.00,,SKC,0.00,VWS V14.01,2013-01-13 09:41:00,
2013-01-13 03:46:00,45.7,34.2,29.94,NNW,334,5.0,18.0,64,0.00,,SKC,0.00,VWS V14.01,2013-01-13 09:46:00,
2013-01-13 03:51:00,45.7,34.2,29.95,NNE,22,6.0,18.0,64,0.00,,SKC,0.00,VWS V14.01,2013-01-13 09:51:00,
2013-01-13 03:56:00,45.7,33.8,29.96,NNW,342,4.0,18.0,63,0.00,,SKC,0.00,VWS V14.01,2013-01-13 09:56:00,
2013-01-13 04:00:00,45.5,33.7,29.96,NW,313,11.0,19.0,63,0.00,,SKC,0.00,VWS V14.01,2013-01-13 10:00:00,
2013-01-13 04:01:00,45.5,33.7,29.96,NNW,337,6.0,19.0,63,0.00,,SKC,0.00,VWS V14.01,2013-01-13 10:01:00,
2013-01-13 04:06:00,45.4,33.6,29.96,NNE,13,15.0,18.0,63,0.00,,SKC,0.00,VWS V14.01,2013-01-13 10:06:00,
2013-01-13 04:11:00,45.2,33.4,29.96,NNW,330,3.0,18.0,63,0.00,,SKC,0.00,VWS V14.01,2013-01-13 10:11:00,
2013-01-13 04:16:00,45.1,33.7,29.95,North,355,6.0,18.0,64,0.00,,SKC,0.00,VWS V14.01,2013-01-13 10:16:00,
2013-01-13 04:21:00,45.1,33.7,29.96,NW,319,9.0,18.0,64,0.00,,SKC,0.00,VWS V14.01,2013-01-13 10:21:00,
2013-01-13 04:26:00,44.9,33.1,29.96,NNW,342,13.0,25.0,63,0.00,,SKC,0.00,VWS V14.01,2013-01-13 10:26:00,
2013-01-13 04:31:00,44.7,33.3,29.96,North,355,11.0,25.0,64,0.00,,SKC,0.00,VWS V14.01,2013-01-13 10:31:00,
2013-01-13 04:36:00,44.5,33.1,29.96,NNE,13,4.0,19.0,64,0.00,,SKC,0.00,VWS V14.01,2013-01-13 10:36:00,
2013-01-13 04:41:00,44.3,32.9,29.96,NW,313,11.0,21.0,64,0.00,,SKC,0.00,VWS V14.01,2013-01-13 10:41:00,
2013-01-13 04:46:00,44.3,32.9,29.96,NNW,348,6.0,21.0,64,0.00,,SKC,0.00,VWS V14.01,2013-01-13 10:46:00,
2013-01-13 04:51:00,44.2,32.8,29.96,NE,40,17.0,21.0,64,0.00,,SKC,0.00,VWS V14.01,2013-01-13 10:51:00,
2013-01-13 04:56:00,44.2,32.8,29.96,North,355,11.0,21.0,64,0.00,,SKC,0.00,VWS V14.01,2013-01-13 10:56:00,
2013-01-13 05:01:00,44.1,32.3,29.97,North,11,15.0,21.0,63,0.00,,SKC,0.00,VWS V14.01,2013-01-13 11:01:00,
2013-01-13 05:06:00,44.1,32.3,29.97,NNE,13,7.0,17.0,63,0.00,,SKC,0.00,VWS V14.01,2013-01-13 11:06:00,
2013-01-13 05:11:00,44.1,32.7,29.97,North,360,19.0,19.0,64,0.00,,SKC,0.00,VWS V14.01,2013-01-13 11:11:00,
2013-01-13 05:16:00,44.1,32.3,29.98,NNE,12,6.0,19.0,63,0.00,,SKC,0.00,VWS V14.01,2013-01-13 11:16:00,
2013-01-13 05:21:00,44.1,32.3,29.98,NNE,22,4.0,22.0,63,0.00,,SKC,0.00,VWS V14.01,2013-01-13 11:21:00,
2013-01-13 05:26:00,44.1,32.3,29.99,NW,305,10.0,22.0,63,0.00,,SKC,0.00,VWS V14.01,2013-01-13 11:26:00,
2013-01-13 05:31:00,44.0,32.2,29.99,NE,37,9.0,22.0,63,0.00,,SKC,0.00,VWS V14.01,2013-01-13 11:31:00,
2013-01-13 05:36:00,44.0,32.2,29.99,NNW,327,18.0,18.0,63,0.00,,SKC,0.00,VWS V14.01,2013-01-13 11:36:00,
2013-01-13 05:41:00,44.0,32.2,29.99,North,355,17.0,22.0,63,0.00,,SKC,0.00,VWS V14.01,2013-01-13 11:41:00,
2013-01-13 05:46:00,44.0,31.8,30.00,NW,325,7.0,22.0,62,0.00,,SKC,0.00,VWS V14.01,2013-01-13 11:46:00,
2013-01-13 05:51:00,44.0,31.8,30.00,NNW,331,7.0,22.0,62,0.00,,SKC,0.00,VWS V14.01,2013-01-13 11:51:00,
2013-01-13 05:56:00,44.0,31.8,30.00,North,355,9.0,22.0,62,0.00,,SKC,0.00,VWS V14.01,2013-01-13 11:56:00,
2013-01-13 06:01:00,44.0,31.8,30.00,North,9,9.0,22.0,62,0.00,,SKC,0.00,VWS V14.01,2013-01-13 12:01:00,
2013-01-13 06:06:00,44.0,31.8,30.01,NNW,341,2.0,11.0,62,0.00,,SKC,0.00,VWS V14.01,2013-01-13 12:06:00,
2013-01-13 06:11:00,44.1,31.9,30.01,North,360,4.0,13.0,62,0.00,,SKC,0.00,VWS V14.01,2013-01-13 12:11:00,
2013-01-13 06:16:00,44.1,31.9,30.01,NNW,331,5.0,14.0,62,0.00,,SKC,0.00,VWS V14.01,2013-01-13 12:16:00,
2013-01-13 06:21:00,44.1,31.5,30.01,North,355,13.0,19.0,61,0.00,,SKC,0.00,VWS V14.01,2013-01-13 12:21:00,
2013-01-13 06:26:00,44.0,31.4,30.01,NNE,24,10.0,21.0,61,0.00,,SKC,0.00,VWS V14.01,2013-01-13 12:26:00,
2013-01-13 06:31:00,43.9,31.7,30.01,NNW,337,7.0,21.0,62,0.00,,SKC,0.00,VWS V14.01,2013-01-13 12:31:00,
2013-01-13 06:36:00,43.9,31.7,30.02,NNW,346,13.0,16.0,62,0.00,,SKC,0.00,VWS V14.01,2013-01-13 12:36:00,
2013-01-13 06:41:00,43.8,31.6,30.02,North,360,12.0,16.0,62,0.00,,SKC,0.00,VWS V14.01,2013-01-13 12:41:00,
2013-01-13 06:46:00,43.8,31.6,30.02,NNE,32,10.0,16.0,62,0.00,,SKC,0.00,VWS V14.01,2013-01-13 12:46:00,
2013-01-13 06:51:00,43.8,31.6,30.03,NNW,330,4.0,16.0,62,0.00,,SKC,0.00,VWS V14.01,2013-01-13 12:51:00,
2013-01-13 06:56:00,43.7,31.5,30.04,NNW,337,4.0,16.0,62,0.00,,SKC,0.00,VWS V14.01,2013-01-13 12:56:00,
2013-01-13 07:01:00,43.7,31.5,30.04,NNW,333,5.0,16.0,62,0.00,,SKC,0.00,VWS V14.01,2013-01-13 13:01:00,
2013-01-13 07:06:00,43.7,31.5,30.05,NNW,333,2.0,12.0,62,0.00,,SKC,0.00,VWS V14.01,2013-01-13 13:06:00,
2013-01-13 07:11:00,43.6,31.9,30.04,NW,308,9.0,12.0,63,0.00,,SKC,0.00,VWS V14.01,2013-01-13 13:11:00,
2013-01-13 07:16:00,43.5,31.8,30.05,North,350,5.0,13.0,63,0.00,,SKC,0.00,VWS V14.01,2013-01-13 13:16:00,
2013-01-13 07:21:00,43.5,31.8,30.06,NNW,330,11.0,15.0,63,0.00,,SKC,0.00,VWS V14.01,2013-01-13 13:21:00,
2013-01-13 07:26:00,43.4,31.7,30.06,NNW,345,10.0,15.0,63,0.00,,SKC,0.00,VWS V14.01,2013-01-13 13:26:00,
2013-01-13 07:31:00,43.4,31.7,30.07,North,360,10.0,15.0,63,0.00,,SKC,0.00,VWS V14.01,2013-01-13 13:31:00,
2013-01-13 07:36:00,43.4,31.7,30.07,NNW,346,5.0,10.0,63,0.00,,SKC,0.00,VWS V14.01,2013-01-13 13:36:00,
2013-01-13 07:41:00,43.3,31.6,30.08,North,5,11.0,16.0,63,0.00,,SKC,0.00,VWS V14.01,2013-01-13 13:41:00,
2013-01-13 07:46:00,43.2,31.5,30.08,NNW,338,10.0,16.0,63,0.00,,SKC,0.00,VWS V14.01,2013-01-13 13:46:00,
2013-01-13 07:51:00,43.1,31.4,30.08,NNW,328,4.0,16.0,63,0.00,,SKC,0.00,VWS V14.01,2013-01-13 13:51:00,
2013-01-13 07:56:00,43.1,31.8,30.09,North,355,5.0,16.0,64,0.00,,SKC,0.00,VWS V14.01,2013-01-13 13:56:00,
2013-01-13 08:01:00,43.1,31.8,30.09,North,5,5.0,16.0,64,0.00,,SKC,0.00,VWS V14.01,2013-01-13 14:01:00,
2013-01-13 08:06:00,43.1,31.8,30.10,North,355,7.0,16.0,64,0.00,,SKC,0.00,VWS V14.01,2013-01-13 14:06:00,
2013-01-13 08:11:00,43.1,31.8,30.10,NNE,29,8.0,16.0,64,0.00,,SKC,0.00,VWS V14.01,2013-01-13 14:11:00,
2013-01-13 08:16:00,43.1,31.8,30.11,NW,324,6.0,16.0,64,0.00,,SKC,0.00,VWS V14.01,2013-01-13 14:16:00,
2013-01-13 08:21:00,43.1,31.8,30.11,NW,318,6.0,16.0,64,0.00,,SKC,0.00,VWS V14.01,2013-01-13 14:21:00,
2013-01-13 08:26:00,43.1,31.8,30.11,North,360,9.0,16.0,64,0.00,,SKC,0.00,VWS V14.01,2013-01-13 14:26:00,
2013-01-13 08:31:00,43.1,31.8,30.11,NNW,334,4.0,16.0,64,0.00,,SKC,0.00,VWS V14.01,2013-01-13 14:31:00,
2013-01-13 08:36:00,43.0,31.7,30.11,North,355,5.0,14.0,64,0.00,,SKC,0.00,VWS V14.01,2013-01-13 14:36:00,
2013-01-13 08:41:00,42.9,31.6,30.11,NW,323,4.0,14.0,64,0.00,,SKC,0.00,VWS V14.01,2013-01-13 14:41:00,
2013-01-13 08:46:00,42.8,31.5,30.11,NW,314,11.0,16.0,64,0.00,,SKC,0.00,VWS V14.01,2013-01-13 14:46:00,
2013-01-13 08:51:00,42.8,31.9,30.12,NW,316,10.0,21.0,65,0.00,,SKC,0.00,VWS V14.01,2013-01-13 14:51:00,
2013-01-13 08:56:00,42.9,31.6,30.12,NNW,338,9.0,21.0,64,0.00,,SKC,0.00,VWS V14.01,2013-01-13 14:56:00,
2013-01-13 09:01:00,43.0,31.7,30.12,NNW,335,9.0,21.0,64,0.00,,SKC,0.00,VWS V14.01,2013-01-13 15:01:00,
2013-01-13 09:06:00,43.1,32.2,30.12,NNW,343,5.0,12.0,65,0.00,,SKC,0.00,VWS V14.01,2013-01-13 15:06:00,
2013-01-13 09:11:00,43.3,32.3,30.13,NW,321,10.0,12.0,65,0.00,,SKC,0.00,VWS V14.01,2013-01-13 15:11:00,
2013-01-13 09:16:00,43.3,32.0,30.13,NW,319,5.0,15.0,64,0.00,,SKC,0.00,VWS V14.01,2013-01-13 15:16:00,
2013-01-13 09:21:00,43.3,31.6,30.13,North,355,9.0,18.0,63,0.00,,SKC,0.00,VWS V14.01,2013-01-13 15:21:00,
2013-01-13 09:26:00,43.6,32.2,30.13,NNE,26,7.0,18.0,64,0.00,,SKC,0.00,VWS V14.01,2013-01-13 15:26:00,
2013-01-13 09:31:00,43.7,31.5,30.14,NNE,28,7.0,18.0,62,0.00,,SKC,0.00,VWS V14.01,2013-01-13 15:31:00,
2013-01-13 09:35:00,43.5,31.4,30.14,North,11,5.0,13.0,62,0.00,,SKC,0.00,VWS V14.01,2013-01-13 15:35:00,
2013-01-13 09:40:00,43.5,31.4,30.15,NNW,333,9.0,15.0,62,0.00,,SKC,0.00,VWS V14.01,2013-01-13 15:40:00,
2013-01-13 09:45:00,43.6,31.5,30.15,NNE,20,8.0,15.0,62,0.00,,SKC,0.00,VWS V14.01,2013-01-13 15:45:00,
2013-01-13 09:50:00,43.8,31.2,30.16,NNW,336,2.0,15.0,61,0.00,,SKC,0.00,VWS V14.01,2013-01-13 15:50:00,
2013-01-13 09:55:00,44.2,31.6,30.15,NW,318,10.0,15.0,61,0.00,,SKC,0.00,VWS V14.01,2013-01-13 15:55:00,
2013-01-13 10:01:00,44.3,30.9,30.16,NW,305,11.0,18.0,59,0.00,,SKC,0.00,VWS V14.01,2013-01-13 16:01:00,
2013-01-13 10:06:00,44.3,30.9,30.16,NW,326,10.0,18.0,59,0.00,,SKC,0.00,VWS V14.01,2013-01-13 16:06:00,
2013-01-13 10:11:00,44.4,31.0,30.16,NNW,336,7.0,18.0,59,0.00,,SKC,0.00,VWS V14.01,2013-01-13 16:11:00,
2013-01-13 10:16:00,44.7,30.9,30.16,NW,323,7.0,18.0,58,0.00,,SKC,0.00,VWS V14.01,2013-01-13 16:16:00,
2013-01-13 10:21:00,45.0,31.1,30.16,NNW,331,10.0,18.0,58,0.00,,SKC,0.00,VWS V14.01,2013-01-13 16:21:00,
2013-01-13 10:26:00,45.3,31.4,30.16,North,360,4.0,18.0,58,0.00,,SKC,0.00,VWS V14.01,2013-01-13 16:26:00,
2013-01-13 10:31:00,45.7,31.4,30.17,NNW,346,10.0,18.0,57,0.00,,SKC,0.00,VWS V14.01,2013-01-13 16:31:00,
2013-01-13 10:36:00,45.8,31.0,30.17,NNW,342,8.0,18.0,56,0.00,,SKC,0.00,VWS V14.01,2013-01-13 16:36:00,
2013-01-13 10:41:00,45.8,31.0,30.17,North,5,10.0,18.0,56,0.00,,SKC,0.00,VWS V14.01,2013-01-13 16:41:00,
2013-01-13 10:46:00,46.0,31.2,30.16,NNW,338,9.0,18.0,56,0.00,,SKC,0.00,VWS V14.01,2013-01-13 16:46:00,
2013-01-13 10:51:00,46.1,31.3,30.16,NNE,23,7.0,18.0,56,0.00,,SKC,0.00,VWS V14.01,2013-01-13 16:51:00,
2013-01-13 10:56:00,46.1,31.3,30.16,NW,305,10.0,18.0,56,0.00,,SKC,0.00,VWS V14.01,2013-01-13 16:56:00,
2013-01-13 11:01:00,46.4,31.6,30.16,NNW,329,9.0,18.0,56,0.00,,SKC,0.00,VWS V14.01,2013-01-13 17:01:00,
2013-01-13 11:06:00,46.8,32.0,30.16,NNE,20,4.0,14.0,56,0.00,,SKC,0.00,VWS V14.01,2013-01-13 17:06:00,
2013-01-13 11:11:00,47.2,32.3,30.16,North,360,5.0,15.0,56,0.00,,SKC,0.00,VWS V14.01,2013-01-13 17:11:00,
2013-01-13 11:16:00,47.3,32.0,30.16,North,11,12.0,18.0,55,0.00,,SKC,0.00,VWS V14.01,2013-01-13 17:16:00,
2013-01-13 11:21:00,47.2,31.9,30.15,North,355,7.0,18.0,55,0.00,,SKC,0.00,VWS V14.01,2013-01-13 17:21:00,
2013-01-13 11:25:00,47.4,31.6,30.15,NNW,346,14.0,18.0,54,0.00,,SKC,0.00,VWS V14.01,2013-01-13 17:25:00,
2013-01-13 11:30:00,47.6,32.2,30.15,NNE,15,11.0,18.0,55,0.00,,SKC,0.00,VWS V14.01,2013-01-13 17:30:00,
2013-01-13 11:35:00,47.9,32.1,30.15,NE,55,9.0,17.0,54,0.00,,SKC,0.00,VWS V14.01,2013-01-13 17:35:00,
2013-01-13 11:40:00,47.9,32.1,30.15,NNW,331,6.0,17.0,54,0.00,,SKC,0.00,VWS V14.01,2013-01-13 17:40:00,
2013-01-13 11:45:00,48.0,32.2,30.14,NNW,345,3.0,17.0,54,0.00,,SKC,0.00,VWS V14.01,2013-01-13 17:45:00,
2013-01-13 11:50:00,48.5,32.6,30.14,North,349,6.0,17.0,54,0.00,,SKC,0.00,VWS V14.01,2013-01-13 17:50:00,
2013-01-13 11:55:00,48.8,32.9,30.14,NE,43,12.0,17.0,54,0.00,,SKC,0.00,VWS V14.01,2013-01-13 17:55:00,
2013-01-13 12:00:00,49.1,32.7,30.14,NNW,329,13.0,17.0,53,0.00,,SKC,0.00,VWS V14.01,2013-01-13 18:00:00,
2013-01-13 12:05:00,49.3,32.4,30.13,NNW,333,9.0,13.0,52,0.00,,SKC,0.00,VWS V14.01,2013-01-13 18:05:00,
2013-01-13 12:10:00,49.5,33.1,30.13,NNW,328,12.0,15.0,53,0.00,,SKC,0.00,VWS V14.01,2013-01-13 18:10:00,
2013-01-13 12:15:00,49.9,33.0,30.13,NW,314,9.0,15.0,52,0.00,,SKC,0.00,VWS V14.01,2013-01-13 18:15:00,
2013-01-13 12:20:00,50.4,33.5,30.12,NNW,342,9.0,15.0,52,0.00,,SKC,0.00,VWS V14.01,2013-01-13 18:20:00,
2013-01-13 12:25:00,50.8,33.3,30.12,North,350,5.0,15.0,51,0.00,,SKC,0.00,VWS V14.01,2013-01-13 18:25:00,
2013-01-13 12:30:00,50.9,33.4,30.12,North,351,5.0,15.0,51,0.00,,SKC,0.00,VWS V14.01,2013-01-13 18:30:00,
2013-01-13 12:35:00,51.5,33.5,30.12,NNW,336,10.0,13.0,50,0.00,,SKC,0.00,VWS V14.01,2013-01-13 18:35:00,
2013-01-13 12:40:00,52.0,34.0,30.12,North,355,7.0,13.0,50,0.00,,SKC,0.00,VWS V14.01,2013-01-13 18:40:00,
2013-01-13 12:45:00,52.5,33.9,30.11,NNW,342,9.0,13.0,49,0.00,,SKC,0.00,VWS V14.01,2013-01-13 18:45:00,
2013-01-13 12:50:00,52.6,34.0,30.11,NNW,348,8.0,13.0,49,0.00,,SKC,0.00,VWS V14.01,2013-01-13 18:50:00,
2013-01-13 12:55:00,52.6,34.0,30.11,NW,326,9.0,14.0,49,0.00,,SKC,0.00,VWS V14.01,2013-01-13 18:55:00,
2013-01-13 13:00:00,52.9,33.8,30.11,NE,35,9.0,15.0,48,0.00,,SKC,0.00,VWS V14.01,2013-01-13 19:00:00,
2013-01-13 13:05:00,53.0,33.3,30.11,NNE,16,9.0,15.0,47,0.00,,SKC,0.00,VWS V14.01,2013-01-13 19:05:00,
2013-01-13 13:10:00,53.1,33.4,30.11,NNW,333,7.0,17.0,47,0.00,,SKC,0.00,VWS V14.01,2013-01-13 19:10:00,
2013-01-13 13:15:00,53.3,34.1,30.11,North,355,4.0,17.0,48,0.00,,SKC,0.00,VWS V14.01,2013-01-13 19:15:00,
2013-01-13 13:20:00,53.6,33.3,30.11,NE,47,4.0,17.0,46,0.00,,SKC,0.00,VWS V14.01,2013-01-13 19:20:00,
2013-01-13 13:25:00,53.8,34.1,30.11,North,355,7.0,17.0,47,0.00,,SKC,0.00,VWS V14.01,2013-01-13 19:25:00,
2013-01-13 13:30:00,53.9,33.6,30.11,NNW,329,8.0,17.0,46,0.00,,SKC,0.00,VWS V14.01,2013-01-13 19:30:00,
2013-01-13 13:35:00,53.6,33.3,30.11,NNE,13,3.0,16.0,46,0.00,,SKC,0.00,VWS V14.01,2013-01-13 19:35:00,
2013-01-13 13:40:00,53.5,33.2,30.11,North,9,3.0,16.0,46,0.00,,SKC,0.00,VWS V14.01,2013-01-13 19:40:00,
2013-01-13 13:45:00,53.8,33.5,30.10,NNE,32,8.0,16.0,46,0.00,,SKC,0.00,VWS V14.01,2013-01-13 19:45:00,
2013-01-13 13:50:00,54.1,32.7,30.10,NNE,32,7.0,16.0,44,0.00,,SKC,0.00,VWS V14.01,2013-01-13 19:50:00,
2013-01-13 13:55:00,54.2,33.3,30.10,NNE,31,1.0,16.0,45,0.00,,SKC,0.00,VWS V14.01,2013-01-13 19:55:00,
2013-01-13 14:00:00,54.6,33.1,30.10,North,355,6.0,16.0,44,0.00,,SKC,0.00,VWS V14.01,2013-01-13 20:00:00,
2013-01-13 14:05:00,55.0,33.5,30.10,North,355,7.0,13.0,44,0.00,,SKC,0.00,VWS V14.01,2013-01-13 20:05:00,
2013-01-13 14:10:00,55.1,33.0,30.10,NNE,17,11.0,14.0,43,0.00,,SKC,0.00,VWS V14.01,2013-01-13 20:10:00,
2013-01-13 14:15:00,54.5,31.9,30.11,North,5,9.0,15.0,42,0.00,,SKC,0.00,VWS V14.01,2013-01-13 20:15:00,
2013-01-13 14:20:00,54.2,32.2,30.10,NNW,337,11.0,15.0,43,0.00,,SKC,0.00,VWS V14.01,2013-01-13 20:20:00,
2013-01-13 14:25:00,54.2,32.2,30.10,North,10,14.0,17.0,43,0.00,,SKC,0.00,VWS V14.01,2013-01-13 20:25:00,
2013-01-13 14:30:00,54.1,32.1,30.10,North,355,11.0,17.0,43,0.00,,SKC,0.00,VWS V14.01,2013-01-13 20:30:00,
2013-01-13 14:35:00,54.0,32.6,30.10,North,9,12.0,17.0,44,0.00,,SKC,0.00,VWS V14.01,2013-01-13 20:35:00,
2013-01-13 14:40:00,54.0,32.0,30.10,North,355,5.0,20.0,43,0.00,,SKC,0.00,VWS V14.01,2013-01-13 20:40:00,
2013-01-13 14:45:00,54.0,33.2,30.11,North,355,7.0,20.0,45,0.00,,SKC,0.00,VWS V14.01,2013-01-13 20:45:00,
2013-01-13 14:50:00,54.1,32.1,30.11,North,360,11.0,20.0,43,0.00,,SKC,0.00,VWS V14.01,2013-01-13 20:50:00,
2013-01-13 14:55:00,54.4,32.4,30.12,North,360,6.0,20.0,43,0.00,,SKC,0.00,VWS V14.01,2013-01-13 20:55:00,
2013-01-13 15:00:00,54.6,32.0,30.11,North,5,5.0,20.0,42,0.00,,SKC,0.00,VWS V14.01,2013-01-13 21:00:00,
2013-01-13 15:05:00,54.6,32.6,30.11,NNE,28,4.0,14.0,43,0.00,,SKC,0.00,VWS V14.01,2013-01-13 21:05:00,
2013-01-13 15:10:00,54.5,32.5,30.11,NNE,29,9.0,16.0,43,0.00,,SKC,0.00,VWS V14.01,2013-01-13 21:10:00,
2013-01-13 15:15:00,54.3,32.3,30.11,NNW,345,11.0,16.0,43,0.00,,SKC,0.00,VWS V14.01,2013-01-13 21:15:00,
2013-01-13 15:20:00,54.4,33.0,30.11,NNW,338,8.0,16.0,44,0.00,,SKC,0.00,VWS V14.01,2013-01-13 21:20:00,
2013-01-13 15:25:00,54.5,33.0,30.11,NW,317,10.0,16.0,44,0.00,,SKC,0.00,VWS V14.01,2013-01-13 21:25:00,
2013-01-13 15:30:00,54.4,33.0,30.11,North,355,6.0,16.0,44,0.00,,SKC,0.00,VWS V14.01,2013-01-13 21:30:00,
2013-01-13 15:35:00,54.2,32.8,30.12,North,10,6.0,15.0,44,0.00,,SKC,0.00,VWS V14.01,2013-01-13 21:35:00,
2013-01-13 15:40:00,54.1,32.7,30.12,ENE,66,7.0,15.0,44,0.00,,SKC,0.00,VWS V14.01,2013-01-13 21:40:00,
2013-01-13 15:45:00,54.1,33.2,30.12,NNE,22,4.0,15.0,45,0.00,,SKC,0.00,VWS V14.01,2013-01-13 21:45:00,
2013-01-13 15:50:00,54.3,33.4,30.11,NNE,25,5.0,15.0,45,0.00,,SKC,0.00,VWS V14.01,2013-01-13 21:50:00,
2013-01-13 15:55:00,54.5,33.6,30.11,East,84,5.0,15.0,45,0.00,,SKC,0.00,VWS V14.01,2013-01-13 21:55:00,
2013-01-13 16:00:00,54.5,33.0,30.11,North,360,4.0,15.0,44,0.00,,SKC,0.00,VWS V14.01,2013-01-13 22:00:00,
2013-01-13 16:05:00,54.2,32.8,30.12,NE,43,2.0,13.0,44,0.00,,SKC,0.00,VWS V14.01,2013-01-13 22:05:00,
2013-01-13 16:10:00,54.1,33.2,30.12,North,9,4.0,13.0,45,0.00,,SKC,0.00,VWS V14.01,2013-01-13 22:10:00,
2013-01-13 16:15:00,53.9,33.1,30.12,North,5,1.0,13.0,45,0.00,,SKC,0.00,VWS V14.01,2013-01-13 22:15:00,
2013-01-13 16:20:00,54.0,33.7,30.12,North,11,1.0,13.0,46,0.00,,SKC,0.00,VWS V14.01,2013-01-13 22:20:00,
2013-01-13 16:25:00,54.3,33.4,30.13,NNW,329,8.0,13.0,45,0.00,,SKC,0.00,VWS V14.01,2013-01-13 22:25:00,
2013-01-13 16:30:00,54.1,33.2,30.14,North,360,3.0,14.0,45,0.00,,SKC,0.00,VWS V14.01,2013-01-13 22:30:00,
2013-01-13 16:35:00,53.6,32.8,30.14,North,350,5.0,16.0,45,0.00,,SKC,0.00,VWS V14.01,2013-01-13 22:35:00,
2013-01-13 16:40:00,53.2,33.0,30.14,NE,49,3.0,16.0,46,0.00,,SKC,0.00,VWS V14.01,2013-01-13 22:40:00,
2013-01-13 16:45:00,53.1,33.4,30.13,NNE,14,4.0,16.0,47,0.00,,SKC,0.00,VWS V14.01,2013-01-13 22:45:00,
2013-01-13 16:50:00,52.9,32.7,30.13,North,355,6.0,16.0,46,0.00,,SKC,0.00,VWS V14.01,2013-01-13 22:50:00,
2013-01-13 16:55:00,52.7,33.0,30.13,NNE,13,3.0,16.0,47,0.00,,SKC,0.00,VWS V14.01,2013-01-13 22:55:00,
2013-01-13 17:00:00,52.7,33.6,30.13,NNW,346,9.0,16.0,48,0.00,,SKC,0.00,VWS V14.01,2013-01-13 23:00:00,
2013-01-13 17:05:00,52.5,33.4,30.14,North,355,3.0,12.0,48,0.00,,SKC,0.00,VWS V14.01,2013-01-13 23:05:00,
2013-01-13 17:10:00,52.3,33.7,30.14,North,360,6.0,12.0,49,0.00,,SKC,0.00,VWS V14.01,2013-01-13 23:10:00,
2013-01-13 17:15:00,52.1,34.0,30.14,NNE,18,1.0,12.0,50,0.00,,SKC,0.00,VWS V14.01,2013-01-13 23:15:00,
2013-01-13 17:20:00,51.9,33.9,30.14,North,355,2.0,12.0,50,0.00,,SKC,0.00,VWS V14.01,2013-01-13 23:20:00,
2013-01-13 17:25:00,51.7,34.2,30.14,NNW,346,4.0,12.0,51,0.00,,SKC,0.00,VWS V14.01,2013-01-13 23:25:00,
2013-01-13 17:30:00,51.5,34.0,30.14,NNW,343,2.0,12.0,51,0.00,,SKC,0.00,VWS V14.01,2013-01-13 23:30:00,
2013-01-13 17:35:00,51.3,34.3,30.14,NNW,346,4.0,5.0,52,0.00,,SKC,0.00,VWS V14.01,2013-01-13 23:35:00,
2013-01-13 17:40:00,51.0,34.0,30.14,North,11,0.0,11.0,52,0.00,,SKC,0.00,VWS V14.01,2013-01-13 23:40:00,
2013-01-13 17:45:00,50.8,34.3,30.14,North,10,6.0,11.0,53,0.00,,SKC,0.00,VWS V14.01,2013-01-13 23:45:00,
2013-01-13 17:50:00,50.6,34.1,30.14,NNE,23,2.0,11.0,53,0.00,,SKC,0.00,VWS V14.01,2013-01-13 23:50:00,
2013-01-13 17:55:00,50.4,33.9,30.15,North,5,6.0,11.0,53,0.00,,SKC,0.00,VWS V14.01,2013-01-13 23:55:00,
2013-01-13 18:00:00,50.1,34.1,30.15,NNE,17,3.0,11.0,54,0.00,,SKC,0.00,VWS V14.01,2013-01-14 00:00:00,
2013-01-13 18:05:00,49.8,34.3,30.15,NNE,17,0.0,6.0,55,0.00,,SKC,0.00,VWS V14.01,2013-01-14 00:05:00,
2013-01-13 18:10:00,49.5,34.0,30.15,NNE,12,2.0,7.0,55,0.00,,SKC,0.00,VWS V14.01,2013-01-14 00:10:00,
2013-01-13 18:15:00,49.2,34.2,30.15,NNE,14,0.0,7.0,56,0.00,,SKC,0.00,VWS V14.01,2013-01-14 00:15:00,
2013-01-13 18:20:00,49.0,34.0,30.15,NNE,19,0.0,7.0,56,0.00,,SKC,0.00,VWS V14.01,2013-01-14 00:20:00,
2013-01-13 18:25:00,48.7,34.2,30.16,NNE,15,1.0,7.0,57,0.00,,SKC,0.00,VWS V14.01,2013-01-14 00:25:00,
2013-01-13 18:30:00,48.5,34.0,30.16,NNE,14,3.0,7.0,57,0.00,,SKC,0.00,VWS V14.01,2013-01-14 00:30:00,
2013-01-13 18:35:00,48.1,35.3,30.16,NNE,13,1.0,4.0,61,0.00,,SKC,0.00,VWS V14.01,2013-01-14 00:35:00,
2013-01-13 18:40:00,47.9,34.3,30.16,NNE,14,0.0,4.0,59,0.00,,SKC,0.00,VWS V14.01,2013-01-14 00:40:00,
2013-01-13 18:45:00,47.6,34.0,30.16,North,11,0.0,5.0,59,0.00,,SKC,0.00,VWS V14.01,2013-01-14 00:45:00,
2013-01-13 18:50:00,47.3,33.7,30.16,North,10,3.0,6.0,59,0.00,,SKC,0.00,VWS V14.01,2013-01-14 00:50:00,
2013-01-13 18:55:00,47.1,33.5,30.17,North,5,0.0,9.0,59,0.00,,SKC,0.00,VWS V14.01,2013-01-14 00:55:00,
2013-01-13 19:00:00,46.8,33.7,30.17,North,5,0.0,9.0,60,0.00,,SKC,0.00,VWS V14.01,2013-01-14 01:00:00,
2013-01-13 19:05:00,46.6,33.5,30.16,North,5,2.0,5.0,60,0.00,,SKC,0.00,VWS V14.01,2013-01-14 01:05:00,
2013-01-13 19:10:00,46.4,33.3,30.16,North,5,2.0,5.0,60,0.00,,SKC,0.00,VWS V14.01,2013-01-14 01:10:00,
2013-01-13 19:15:00,46.2,33.1,30.17,North,10,3.0,9.0,60,0.00,,SKC,0.00,VWS V14.01,2013-01-14 01:15:00,
2013-01-13 19:20:00,46.0,32.9,30.17,North,11,6.0,9.0,60,0.00,,SKC,0.00,VWS V14.01,2013-01-14 01:20:00,
2013-01-13 19:25:00,45.8,32.7,30.17,NNE,14,4.0,9.0,60,0.00,,SKC,0.00,VWS V14.01,2013-01-14 01:25:00,
2013-01-13 19:30:00,45.6,32.9,30.17,NNE,13,0.0,9.0,61,0.00,,SKC,0.00,VWS V14.01,2013-01-14 01:30:00,
2013-01-13 19:35:00,45.4,32.8,30.16,North,5,5.0,6.0,61,0.00,,SKC,0.00,VWS V14.01,2013-01-14 01:35:00,
2013-01-13 19:40:00,45.2,32.6,30.16,NNE,15,0.0,7.0,61,0.00,,SKC,0.00,VWS V14.01,2013-01-14 01:40:00,
2013-01-13 19:45:00,45.1,32.5,30.17,NNW,348,3.0,9.0,61,0.00,,SKC,0.00,VWS V14.01,2013-01-14 01:45:00,
2013-01-13 19:50:00,45.0,32.4,30.17,North,5,0.0,9.0,61,0.00,,SKC,0.00,VWS V14.01,2013-01-14 01:50:00,
2013-01-13 19:55:00,44.9,32.3,30.18,North,350,0.0,9.0,61,0.00,,SKC,0.00,VWS V14.01,2013-01-14 01:55:00,
2013-01-13 20:00:00,44.8,32.2,30.17,NNW,347,4.0,9.0,61,0.00,,SKC,0.00,VWS V14.01,2013-01-14 02:00:00,
2013-01-13 20:05:00,44.7,32.1,30.18,NNW,346,1.0,8.0,61,0.00,,SKC,0.00,VWS V14.01,2013-01-14 02:05:00,
2013-01-13 20:10:00,44.5,32.3,30.18,NNW,344,4.0,8.0,62,0.00,,SKC,0.00,VWS V14.01,2013-01-14 02:10:00,
2013-01-13 20:15:00,44.3,32.1,30.18,NNW,340,4.0,8.0,62,0.00,,SKC,0.00,VWS V14.01,2013-01-14 02:15:00,
2013-01-13 20:20:00,44.1,32.3,30.18,NNW,345,0.0,8.0,63,0.00,,SKC,0.00,VWS V14.01,2013-01-14 02:20:00,
2013-01-13 20:25:00,43.9,32.1,30.18,NNW,345,1.0,8.0,63,0.00,,SKC,0.00,VWS V14.01,2013-01-14 02:25:00,
2013-01-13 20:30:00,43.8,32.0,30.18,NNW,346,0.0,8.0,63,0.00,,SKC,0.00,VWS V14.01,2013-01-14 02:30:00,
2013-01-13 20:35:00,43.6,31.9,30.18,NNW,347,5.0,9.0,63,0.00,,SKC,0.00,VWS V14.01,2013-01-14 02:35:00,
2013-01-13 20:40:00,43.6,31.5,30.18,NNW,342,5.0,10.0,62,0.00,,SKC,0.00,VWS V14.01,2013-01-14 02:40:00,
2013-01-13 20:45:00,43.6,31.5,30.18,NNW,336,4.0,10.0,62,0.00,,SKC,0.00,VWS V14.01,2013-01-14 02:45:00,
2013-01-13 20:50:00,43.5,31.0,30.17,NNW,336,1.0,10.0,61,0.00,,SKC,0.00,VWS V14.01,2013-01-14 02:50:00,
2013-01-13 20:55:00,43.5,31.0,30.17,NNW,336,4.0,10.0,61,0.00,,SKC,0.00,VWS V14.01,2013-01-14 02:55:00,
2013-01-13 21:00:00,43.4,30.9,30.17,NNE,22,6.0,15.0,61,0.00,,SKC,0.00,VWS V14.01,2013-01-14 03:00:00,
2013-01-13 21:05:00,43.4,30.5,30.18,North,360,6.0,13.0,60,0.00,,SKC,0.00,VWS V14.01,2013-01-14 03:05:00,
2013-01-13 21:10:00,43.4,30.5,30.18,North,355,3.0,13.0,60,0.00,,SKC,0.00,VWS V14.01,2013-01-14 03:10:00,
2013-01-13 21:15:00,43.3,30.4,30.18,NNE,14,2.0,13.0,60,0.00,,SKC,0.00,VWS V14.01,2013-01-14 03:15:00,
2013-01-13 21:20:00,43.3,30.0,30.18,NNE,16,6.0,13.0,59,0.00,,SKC,0.00,VWS V14.01,2013-01-14 03:20:00,
2013-01-13 21:25:00,43.2,29.9,30.18,NNW,344,1.0,13.0,59,0.00,,SKC,0.00,VWS V14.01,2013-01-14 03:25:00,
2013-01-13 21:30:00,43.0,30.1,30.19,NNE,22,3.0,13.0,60,0.00,,SKC,0.00,VWS V14.01,2013-01-14 03:30:00,
2013-01-13 21:35:00,42.9,30.0,30.19,North,9,6.0,11.0,60,0.00,,SKC,0.00,VWS V14.01,2013-01-14 03:35:00,
2013-01-13 21:40:00,42.7,29.8,30.19,North,9,3.0,11.0,60,0.00,,SKC,0.00,VWS V14.01,2013-01-14 03:40:00,
2013-01-13 21:45:00,42.6,29.7,30.19,NNE,15,4.0,11.0,60,0.00,,SKC,0.00,VWS V14.01,2013-01-14 03:45:00,
2013-01-13 21:50:00,42.4,29.9,30.20,NNE,24,3.0,11.0,61,0.00,,SKC,0.00,VWS V14.01,2013-01-14 03:50:00,
2013-01-13 21:55:00,42.3,29.8,30.20,NNE,32,4.0,11.0,61,0.00,,SKC,0.00,VWS V14.01,2013-01-14 03:55:00,
2013-01-13 22:00:00,42.2,29.7,30.20,NNE,32,1.0,11.0,61,0.00,,SKC,0.00,VWS V14.01,2013-01-14 04:00:00,
2013-01-13 22:05:00,42.1,29.2,30.20,NE,49,3.0,5.0,60,0.00,,SKC,0.00,VWS V14.01,2013-01-14 04:05:00,
2013-01-13 22:10:00,42.0,29.1,30.20,NE,42,3.0,7.0,60,0.00,,SKC,0.00,VWS V14.01,2013-01-14 04:10:00,
2013-01-13 22:15:00,42.0,29.1,30.19,ENE,71,6.0,7.0,60,0.00,,SKC,0.00,VWS V14.01,2013-01-14 04:15:00,
2013-01-13 22:20:00,42.0,29.1,30.19,NE,46,3.0,11.0,60,0.00,,SKC,0.00,VWS V14.01,2013-01-14 04:20:00,
2013-01-13 22:25:00,41.9,29.0,30.20,NE,44,1.0,11.0,60,0.00,,SKC,0.00,VWS V14.01,2013-01-14 04:25:00,
2013-01-13 22:30:00,41.8,29.0,30.19,NE,44,0.0,11.0,60,0.00,,SKC,0.00,VWS V14.01,2013-01-14 04:30:00,
2013-01-13 22:35:00,41.6,28.8,30.19,NE,44,0.0,3.0,60,0.00,,SKC,0.00,VWS V14.01,2013-01-14 04:35:00,
2013-01-13 22:40:00,41.5,29.1,30.19,NE,44,0.0,4.0,61,0.00,,SKC,0.00,VWS V14.01,2013-01-14 04:40:00,
2013-01-13 22:45:00,41.4,29.0,30.19,NE,46,0.0,4.0,61,0.00,,SKC,0.00,VWS V14.01,2013-01-14 04:45:00,
2013-01-13 22:50:00,41.3,28.9,30.19,NNE,29,0.0,7.0,61,0.00,,SKC,0.00,VWS V14.01,2013-01-14 04:50:00,
2013-01-13 22:55:00,41.2,28.8,30.18,NE,50,0.0,7.0,61,0.00,,SKC,0.00,VWS V14.01,2013-01-14 04:55:00,
2013-01-13 23:00:00,41.1,29.1,30.18,NE,41,2.0,7.0,62,0.00,,SKC,0.00,VWS V14.01,2013-01-14 05:00:00,
2013-01-13 23:01:00,41.0,29.0,30.18,NE,41,0.0,7.0,62,0.00,,SKC,0.00,VWS V14.01,2013-01-14 05:01:00,
2013-01-13 23:03:00,41.0,29.0,30.18,NE,52,3.0,7.0,62,0.00,,SKC,0.00,VWS V14.01,2013-01-14 05:03:00,
2013-01-13 23:08:00,40.8,28.8,30.19,NE,46,0.0,9.0,62,0.00,,SKC,0.00,VWS V14.01,2013-01-14 05:08:00,
2013-01-13 23:13:00,40.8,28.8,30.19,NE,43,2.0,9.0,62,0.00,,SKC,0.00,VWS V14.01,2013-01-14 05:13:00,
2013-01-13 23:18:00,40.7,28.7,30.19,NE,44,2.0,9.0,62,0.00,,SKC,0.00,VWS V14.01,2013-01-14 05:18:00,
2013-01-13 23:23:00,40.6,28.6,30.19,NE,39,3.0,9.0,62,0.00,,SKC,0.00,VWS V14.01,2013-01-14 05:23:00,
2013-01-13 23:28:00,40.5,28.9,30.19,NE,35,3.0,9.0,63,0.00,,SKC,0.00,VWS V14.01,2013-01-14 05:28:00,
2013-01-13 23:33:00,40.4,28.8,30.20,NE,34,0.0,4.0,63,0.00,,SKC,0.00,VWS V14.01,2013-01-14 05:33:00,
2013-01-13 23:38:00,40.3,28.7,30.20,NE,34,0.0,4.0,63,0.00,,SKC,0.00,VWS V14.01,2013-01-14 05:38:00,
2013-01-13 23:43:00,40.2,28.6,30.20,NE,34,2.0,4.0,63,0.00,,SKC,0.00,VWS V14.01,2013-01-14 05:43:00,
2013-01-13 23:48:00,40.1,28.5,30.19,NNE,27,6.0,13.0,63,0.00,,SKC,0.00,VWS V14.01,2013-01-14 05:48:00,
2013-01-13 23:53:00,40.0,28.4,30.19,NNW,344,5.0,13.0,63,0.00,,SKC,0.00,VWS V14.01,2013-01-14 05:53:00,
2013-01-13 23:58:00,39.8,28.2,30.19,North,355,0.0,13.0,63,0.00,,SKC,0.00,VWS V14.01,2013-01-14 05:58:00,